一网星座-0614星 (ONEWEB-0614)

导读 | 豆包AI

ONEWEB-0614是英国OneWeb星座计划中的一颗低轨通信卫星,于2023年1月10日由SpaceX猎鹰9号火箭在卡纳维拉尔角发射升空,属于OneWeb第16批发射卫星之一。该卫星重约148公斤,依靠太阳能供电,将进入1200公里近地轨道运行,服务于OneWeb全球卫星互联网组网,为全球提供高速宽带接入服务,是OneWeb构建的世界第二大低轨通信星座的组成部分。

Basic Information
目录编号:
55156
目录名称:
ONEWEB-0614
国际标识:
2023-004S
轨道中心:
EARTH
卫星名称:
一网星座-0614星
卫星全名:
一网星座-0614星 (ONEWEB-0614)
卫星状态:
在轨 (已飞行1208 天)
发射日期:
2023-01-10 UTC
国别 :
英国 (GB)
星等 :
--
Orbit Information
数据来源 国际轨道数据 AOE轨道数据
星历时间 2026-05-02T11:33:26+0800
7小时前
查看轨道信息
2026-04-29T00:00:00+0800
3天前
查看轨道信息
半长轴 7595.82km 7595.792km
偏心率 0.0001772 0.000177
轨道倾角 87.892° 87.892°
近地点辐角 85.847° 87.657°
升交点赤经 30.233° 30.925°
平近点角 274.286° 45.066°
近地点 1216.337km 1216.31km
远地点 1219.029km 1219km
周期 109.805分钟 109.804分钟
每日圈数 13.11417 13.114243
Detailed Information
平衡模式:
三轴稳定
覆盖范围:
全球
运营商:
一网卫星公司
运营商所在国:
英国
制造商(研发单位):
一网卫星公司
制造商所在国:
英国
使用方式:
暂无
Satellite Introduction
OneWeb卫星网络由648颗重约125公斤的微型卫星组成,运行在1200公里的轨道上。 每颗卫星都能够提供至少每秒8千兆位的吞吐量,以使用其高吞吐量的Ku频段有效载荷为家庭和移动平台提供互联网接入。该卫星仍在工作。
2D Orbit Map
3D Orbit Map
Orbit Altitude Analysis Chart
Orbit Inclination Analysis Chart
Orbit Comprehensive Analysis Chart
View Comprehensive Chart